Ravenna, OH

9:49 PM EDT on October 22, 2017 (GMT -0400)
Ravenna

Weather History for KPOV - September, 2012

Change the Weather History Date:

Wednesday, September 19, 2012

  Actual Average (KCAK) Record (KCAK)
Temperature  
Mean Temperature 51 °F -  
Max Temperature 61 °F 72 °F 90 °F (1932)
Min Temperature 41 °F 53 °F 39 °F (1956)
Degree Days  
Heating Degree Days 14    
Growing Degree Days 1 (Base 50)    
Moisture  
Dew Point 40 °F    
Average Humidity 73    
Maximum Humidity 100    
Minimum Humidity 35    
Precipitation  
Precipitation 0.01 in - - ()
Sea Level Pressure  
Sea Level Pressure 30.09 in    
Wind  
Wind Speed 3 mph (WSW)    
Max Wind Speed 8 mph    
Max Gust Speed -    
Visibility 10 miles    
Events      
Averages and records for this station are not official NWS values.
T = Trace of Precipitation, MM = Missing Value Source: NWS Daily Summary

Daily Weather History Graph

Daily Weather History Graph

Search for Another Location

Airport or City:

Trip Planner

Search our weather history database for the weather conditions in past years. The results will help you decide how hot, cold, wet, or windy it might be!

Date:

Astronomy

Sep. 19, 2012 Rise Set
Actual Time 7:09 AM EDT 7:26 PM EDT
Civil Twilight 6:42 AM EDT 7:54 PM EDT
Nautical Twilight 6:09 AM EDT 8:26 PM EDT
Astronomical Twilight 5:36 AM EDT 8:59 PM EDT
Moon 11:21 AM EDT (9/19) 9:31 PM EDT (9/19)
Length of Visible Light 13h 11m
Length of Day
12h 16m
Waxing Crescent, 17% of the Moon is Illuminated
Sep 19
Waxing Crescent
Sep 22
First Quarter
Sep 29
Full
Oct 8
Last Quarter
Oct 15
New

Hourly Weather History & Observations

Time (EDT) Temp. Windchill Dew Point Humidity Pressure Visibility Wind Dir Wind Speed Gust Speed Precip Events Conditions
12:13 AM 49.6 °F - 46.4 °F 89% 29.94 in 10.0 mi WSW 3.5 mph - N/A   Clear
12:33 AM 49.5 °F - 47.5 °F 93% 29.94 in 10.0 mi WSW 4.6 mph - N/A   Scattered Clouds
12:53 AM 50.0 °F - 48.2 °F 94% 29.95 in 10.0 mi WSW 6.9 mph - N/A   Mostly Cloudy
1:13 AM 50.0 °F - 46.8 °F 89% 29.96 in 10.0 mi West 5.8 mph - N/A   Mostly Cloudy
1:53 AM 48.2 °F - 45.1 °F 89% 29.98 in 10.0 mi WSW 4.6 mph - N/A   Clear
2:13 AM 47.5 °F - 45.5 °F 93% 29.99 in 10.0 mi WSW 4.6 mph - N/A   Clear
2:33 AM 47.3 °F - 45.1 °F 92% 30.00 in 10.0 mi WSW 3.5 mph - N/A   Clear
2:53 AM 46.9 °F - 44.6 °F 92% 30.00 in 10.0 mi WSW 3.5 mph - N/A   Clear
3:13 AM 45.0 °F 43.5 °F 44.6 °F 99% 30.01 in 10.0 mi West 3.5 mph - N/A   Clear
3:33 AM 44.8 °F 43.3 °F 43.0 °F 93% 30.01 in 10.0 mi WSW 3.5 mph - N/A   Clear
3:53 AM 45.0 °F 42.6 °F 42.4 °F 91% 30.01 in 10.0 mi West 4.6 mph - N/A   Clear
4:13 AM 44.1 °F 41.5 °F 41.4 °F 90% 30.01 in 10.0 mi West 4.6 mph - N/A   Clear
4:33 AM 43.3 °F - 41.9 °F 95% 30.02 in 10.0 mi Calm Calm - N/A   Clear
4:53 AM 43.0 °F 41.3 °F 42.4 °F 98% 30.02 in 10.0 mi West 3.5 mph - N/A   Clear
5:13 AM 43.0 °F 40.3 °F 42.3 °F 97% 30.03 in 10.0 mi West 4.6 mph - N/A   Clear
5:53 AM 42.3 °F - 42.1 °F 99% 30.05 in 10.0 mi Calm Calm - N/A   Clear
6:13 AM 41.9 °F - 42.1 °F 100% 30.06 in 10.0 mi Calm Calm - N/A   Clear
6:33 AM 41.9 °F - 41.9 °F 100% 30.07 in 10.0 mi Calm Calm - N/A   Clear
6:54 AM 41.2 °F - 41.4 °F 100% 30.07 in 10.0 mi Calm Calm - N/A   Clear
7:13 AM 41.0 °F - 41.2 °F 100% 30.08 in 10.0 mi Calm Calm - N/A   Clear
7:33 AM 41.2 °F - 41.4 °F 100% 30.09 in 10.0 mi Calm Calm - N/A   Clear
7:53 AM 42.8 °F - 43.0 °F 100% 30.10 in 10.0 mi Calm Calm - N/A   Clear
8:13 AM 44.4 °F 42.0 °F 42.4 °F 93% 30.10 in 10.0 mi WSW 4.6 mph - N/A   Clear
8:33 AM 46.0 °F 43.9 °F 42.4 °F 87% 30.11 in 10.0 mi West 4.6 mph - N/A   Clear
8:53 AM 47.8 °F - 41.2 °F 78% 30.12 in 10.0 mi WSW 4.6 mph - N/A   Clear
9:13 AM 49.5 °F - 40.8 °F 72% 30.13 in 10.0 mi WSW 5.8 mph - N/A   Mostly Cloudy
9:33 AM 49.5 °F - 41.2 °F 73% 30.13 in 10.0 mi WSW 3.5 mph - N/A   Scattered Clouds
9:53 AM 51.4 °F - 42.4 °F 71% 30.14 in 10.0 mi West 3.5 mph - N/A   Clear
10:13 AM 53.6 °F - 38.5 °F 57% 30.14 in 10.0 mi WNW 3.5 mph - N/A   Scattered Clouds
10:53 AM 54.5 °F - 37.9 °F 54% 30.15 in 10.0 mi West 8.1 mph - N/A   Overcast
11:33 AM 54.9 °F - 35.2 °F 48% 30.15 in 10.0 mi West 3.5 mph - N/A   Overcast
11:53 AM - - - N/A% - - North - - N/A   Unknown
12:13 PM - - - N/A% - - North - - N/A   Unknown
12:33 PM 55.8 °F - 36.3 °F 48% 30.17 in 10.0 mi West 4.6 mph - 0.01 in   Unknown
12:53 PM 57.7 °F - 36.0 °F 44% 30.17 in 10.0 mi SW 3.5 mph - 0.01 in   Overcast
1:13 PM 58.6 °F - 36.1 °F 43% 30.17 in 10.0 mi WNW 5.8 mph - N/A   Mostly Cloudy
1:33 PM 59.5 °F - 36.0 °F 41% 30.17 in 10.0 mi WSW 5.8 mph - N/A   Overcast
1:53 PM 58.6 °F - 36.0 °F 43% 30.16 in 10.0 mi SW 4.6 mph - N/A   Mostly Cloudy
2:13 PM 60.1 °F - 35.4 °F 40% 30.15 in 10.0 mi SSE 5.8 mph - N/A   Mostly Cloudy
2:33 PM 60.6 °F - 34.2 °F 37% 30.15 in 10.0 mi West 8.1 mph - N/A   Mostly Cloudy
2:53 PM 60.3 °F - 34.7 °F 38% 30.15 in 10.0 mi SSW 5.8 mph - N/A   Scattered Clouds
3:13 PM 60.3 °F - 36.0 °F 40% 30.14 in 10.0 mi West 4.6 mph - N/A   Scattered Clouds
3:33 PM 61.5 °F - 35.8 °F 38% 30.13 in 10.0 mi WSW 8.1 mph - N/A   Mostly Cloudy
3:53 PM 60.4 °F - 34.5 °F 38% 30.13 in 10.0 mi West 3.5 mph - N/A   Scattered Clouds
4:13 PM 60.3 °F - 32.7 °F 35% 30.13 in 10.0 mi Calm Calm - N/A   Scattered Clouds
4:33 PM 61.2 °F - 35.1 °F 38% 30.13 in 10.0 mi Calm Calm - N/A   Scattered Clouds
4:53 PM 60.6 °F - 33.4 °F 36% 30.13 in 10.0 mi Calm Calm - N/A   Clear
5:13 PM 61.0 °F - 34.0 °F 36% 30.13 in 10.0 mi West 5.8 mph - N/A   Clear
5:33 PM 60.8 °F - 35.2 °F 38% 30.12 in 10.0 mi SW 3.5 mph - N/A   Clear
5:53 PM 60.1 °F - 36.5 °F 41% 30.12 in 10.0 mi SSW 4.6 mph - N/A   Clear
6:13 PM 59.9 °F - 36.0 °F 41% 30.12 in 10.0 mi Calm Calm - N/A   Clear
6:33 PM 58.6 °F - 36.3 °F 43% 30.12 in 10.0 mi South 3.5 mph - N/A   Clear
6:53 PM 57.2 °F - 37.6 °F 48% 30.12 in 10.0 mi Calm Calm - N/A   Clear
7:13 PM 54.0 °F - 39.4 °F 58% 30.12 in 10.0 mi Calm Calm - N/A   Clear
7:33 PM 51.4 °F - 40.3 °F 66% 30.12 in 10.0 mi Calm Calm - N/A   Clear
7:53 PM 50.2 °F - 42.4 °F 75% 30.12 in 10.0 mi Calm Calm - N/A   Clear
8:13 PM 47.5 °F - 42.6 °F 83% 30.13 in 10.0 mi Calm Calm - N/A   Clear
8:33 PM 46.8 °F - 43.7 °F 89% 30.13 in 10.0 mi Calm Calm - N/A   Clear
9:13 PM 45.0 °F - 43.9 °F 96% 30.13 in 10.0 mi Calm Calm - N/A   Clear
9:33 PM 44.6 °F - 43.9 °F 97% 30.14 in 10.0 mi Calm Calm - N/A   Clear
9:53 PM 43.2 °F - 43.3 °F 100% 30.14 in 10.0 mi Calm Calm - N/A   Clear
10:13 PM 43.0 °F - 43.2 °F 100% 30.13 in 10.0 mi Calm Calm - N/A   Clear
10:33 PM 44.4 °F - 44.6 °F 100% 30.13 in 10.0 mi Calm Calm - N/A   Clear
10:53 PM 43.2 °F - 43.3 °F 100% 30.13 in 10.0 mi Calm Calm - N/A   Clear
11:13 PM 45.0 °F - 41.5 °F 88% 30.13 in 10.0 mi Calm Calm - N/A   Clear
11:33 PM 44.2 °F - 40.5 °F 87% 30.12 in 10.0 mi Calm Calm - N/A   Clear
11:53 PM 43.0 °F - 41.4 °F 94% 30.12 in 10.0 mi Calm Calm - N/A   Clear